DateTimeUTC,F1_A11,F1_S11,BsB_S11,BsG_S11,BsR_S11,BbsB_S11,BbsG_S11,BbsR_S11,BaB_A11,BaG_A11,BaR_A11,Tu_S11,T_S11,Uu_S11,U_S11,P_S11,T1_A11
2021-05-07T19:00:00Z,00000200,21000000,,,,,,,0000.25,0000.05,0000.25,19.5,26.6,01.5,01.0,0674.0,31.2
2021-05-07T19:01:00Z,00000200,21000000,,,,,,,-000.90,-000.28,-000.71,19.5,26.6,01.2,00.8,0674.0,31.2
2021-05-07T19:02:00Z,00000200,21000000,,,,,,,-000.05,-000.31,-000.16,19.5,26.6,01.2,00.8,0674.0,31.2
2021-05-07T19:03:00Z,00000200,61000000,,,,,,,0000.39,0000.49,0000.34,19.5,26.6,01.2,00.8,0674.0,31.2
2021-05-07T19:04:00Z,00000200,41000000,0001.55,0000.83,0000.41,0000.09,0000.34,0000.01,0000.59,0000.64,0000.51,19.7,26.4,00.9,00.6,0674.9,31.2
2021-05-07T19:05:00Z,00000200,01000000,0000.70,0000.46,0000.14,-000.13,0000.38,0000.00,0000.95,0000.31,0000.38,19.8,26.4,00.6,00.4,0675.0,31.2
2021-05-07T19:06:00Z,00000200,01000000,0001.63,0000.73,0000.40,0000.24,0000.36,0000.54,0000.90,0001.09,0000.65,19.8,26.4,00.9,00.6,0675.0,31.2
2021-05-07T19:07:00Z,00000200,01000000,0001.10,0000.93,0000.52,-000.24,0000.38,0000.17,0001.29,0001.35,0001.20,19.7,26.4,00.8,00.5,0675.0,31.2
2021-05-07T19:08:00Z,00000200,01000000,0000.61,0000.53,0000.35,-000.40,0000.11,0000.21,0000.90,0000.68,0000.43,19.7,26.4,00.8,00.5,0675.0,31.2
2021-05-07T19:09:00Z,00000200,01000000,0000.89,0000.45,0000.30,-000.37,0000.15,0000.06,0000.47,0000.47,0000.44,19.7,26.3,00.8,00.5,0675.1,31.2
2021-05-07T19:10:00Z,00000200,01000000,0001.29,0000.91,0000.30,-000.09,0000.26,-000.07,0000.74,0000.31,0000.31,19.7,26.3,00.8,00.5,0675.0,31.2
2021-05-07T19:11:00Z,00000200,01000000,0000.52,0000.50,0000.23,-000.06,0000.35,0000.25,0000.15,0000.13,0000.29,19.8,26.3,00.6,00.4,0675.1,31.2
2021-05-07T19:12:00Z,00000200,01000000,0001.29,0000.66,0000.30,0000.20,0000.16,0000.30,0000.41,0000.76,0000.19,19.7,26.3,00.6,00.4,0675.0,31.2
2021-05-07T19:13:00Z,00000200,01000000,0000.40,0000.28,0000.07,-000.07,0000.53,0000.11,0000.71,0000.23,0000.27,19.7,26.3,00.5,00.3,0675.0,31.2
2021-05-07T19:14:00Z,00000200,01000000,0000.97,0000.60,0000.22,0000.08,0000.27,-000.04,0000.64,0001.04,0000.69,19.7,26.3,00.4,00.3,0675.0,31.2
2021-05-07T19:15:00Z,00000200,01000000,0000.59,0000.43,-000.29,-000.14,0000.02,0000.01,0000.94,0000.32,0000.45,19.7,26.3,00.5,00.3,0675.0,31.2
2021-05-07T19:16:00Z,00000200,01000000,0000.50,0000.50,0000.45,-000.00,0000.19,0000.22,0000.40,0000.70,0000.32,19.7,26.3,00.4,00.3,0675.0,31.2
2021-05-07T19:17:00Z,00000200,01000000,0001.21,0000.22,0000.14,-000.38,0000.15,0000.04,0000.48,0000.72,0000.52,19.7,26.3,00.5,00.3,0675.0,31.2
2021-05-07T19:18:00Z,00000200,01000000,0000.14,0000.36,0000.40,0000.01,0000.23,0000.01,0000.71,0000.42,0000.05,19.7,26.3,00.4,00.3,0675.0,31.2
2021-05-07T19:19:00Z,00000200,01000000,0000.76,0000.82,0000.17,-000.13,0000.22,0000.29,0000.58,0000.65,0000.59,19.8,26.3,00.5,00.4,0675.0,31.2
2021-05-07T19:20:00Z,00000200,01000000,0000.94,0000.55,0000.34,0000.15,0000.09,0000.10,0000.45,-000.07,0000.29,19.7,26.3,00.6,00.4,0675.0,31.2
2021-05-07T19:21:00Z,00000200,01000000,0000.81,0000.45,0000.07,-000.30,0000.47,0000.37,-000.07,0000.46,0000.49,19.7,26.3,00.5,00.3,0675.0,31.2
2021-05-07T19:22:00Z,00000200,01000000,0001.29,0000.29,-000.11,-000.08,0000.04,-000.14,0000.97,0000.72,0000.18,19.7,26.3,00.5,00.3,0675.0,31.2
2021-05-07T19:23:00Z,00000200,01000000,0000.48,0000.68,0000.35,0000.93,0000.23,0000.04,0000.59,0000.14,0000.37,19.7,26.3,00.5,00.3,0675.0,31.2
2021-05-07T19:24:00Z,00000200,01000000,0000.79,0000.86,0000.23,0000.28,0000.26,0000.11,0000.91,0000.97,0000.46,19.7,26.3,00.5,00.3,0675.0,31.2
2021-05-07T19:25:00Z,00000200,01000000,0000.72,0000.56,0000.26,-000.37,0000.03,-000.08,0000.09,0000.20,0000.29,19.7,26.3,00.6,00.4,0675.0,31.2
2021-05-07T19:26:00Z,00000200,01000000,0000.99,0000.47,-000.26,-000.37,0000.32,-000.01,0000.47,0000.32,0000.30,19.7,26.3,00.5,00.3,0675.0,31.2
2021-05-07T19:27:00Z,00000200,01000000,0001.29,0000.50,0000.11,-000.51,0000.13,0000.25,0000.53,0000.67,0000.13,19.7,26.3,00.5,00.3,0675.0,31.2
2021-05-07T19:28:00Z,00000200,01000000,0001.28,0000.58,-000.02,0000.01,0000.23,0000.24,0000.32,0000.38,0000.41,19.7,26.3,00.6,00.4,0675.0,31.2
2021-05-07T19:29:00Z,00000200,01000000,0001.14,0000.39,0000.39,-000.03,-000.11,-000.18,0000.81,0000.15,0000.44,19.7,26.2,00.6,00.4,0675.0,31.2
2021-05-07T19:30:00Z,00000200,01000000,0000.59,0000.72,0000.46,0000.57,0000.27,0000.26,0000.52,0001.00,0000.41,19.7,26.3,00.5,00.3,0675.0,31.2
2021-05-07T19:31:00Z,00000200,01000000,0001.38,0000.88,0000.49,0000.16,0000.12,0000.33,0000.96,0000.44,0000.39,19.7,26.3,00.6,00.4,0675.0,31.2
2021-05-07T19:32:00Z,00000200,01000000,0000.75,0000.55,0000.20,0000.22,0000.38,0000.04,0000.42,0000.31,0000.49,19.7,26.3,00.8,00.6,0675.0,31.2
2021-05-07T19:33:00Z,00000200,01000000,0001.57,0000.72,0000.52,0000.21,0000.33,0000.35,0001.06,0001.19,0000.58,19.7,26.2,00.8,00.5,0675.0,31.2
2021-05-07T19:34:00Z,00000200,01000000,0001.64,0000.52,0000.37,0000.19,0000.54,0000.08,0000.49,0000.43,0000.41,19.8,26.2,00.8,00.5,0675.0,31.2
2021-05-07T19:35:00Z,00000200,01000000,0001.62,0000.62,0000.15,0000.10,0000.11,-000.19,0000.65,0000.51,0000.56,19.7,26.2,01.0,00.6,0675.0,31.2
2021-05-07T19:36:00Z,00000200,01000000,0000.76,0000.96,0000.28,0000.17,0000.21,0000.28,0000.63,0001.02,0000.38,19.7,26.2,01.0,00.7,0675.0,31.2
2021-05-07T19:37:00Z,00000200,01000000,0001.63,0001.09,0000.28,-000.19,0000.30,-000.12,0000.45,-000.08,0000.25,19.7,26.2,01.1,00.8,0675.0,31.2
2021-05-07T19:38:00Z,00000200,01000000,0001.19,0000.63,0000.36,0000.70,0000.31,0000.31,-000.03,0000.40,0000.00,19.7,26.2,00.8,00.5,0675.0,31.2
2021-05-07T19:39:00Z,00000200,01000000,0001.02,0000.57,0000.44,-000.21,0000.30,0000.10,0000.40,-000.09,0000.02,19.7,26.2,00.7,00.5,0675.1,31.2
2021-05-07T19:40:00Z,00000200,01000000,0001.37,0000.76,0000.20,-000.43,0000.48,-000.10,0001.14,0001.05,0000.81,19.7,26.2,00.8,00.5,0675.0,31.2
2021-05-07T19:41:00Z,00000200,01000000,0000.96,0000.83,0000.40,-000.47,0000.04,-000.09,-000.16,0000.14,-000.20,19.7,26.2,01.0,00.7,0675.0,31.2
2021-05-07T19:42:00Z,00000200,01000000,0000.48,0000.49,0000.22,0000.28,0000.27,0000.32,0000.23,0000.12,0000.20,19.7,26.2,00.9,00.6,0675.0,31.2
2021-05-07T19:43:00Z,00000200,01000000,0001.33,0000.27,0000.20,-000.20,-000.07,0000.27,0000.05,-000.09,-000.18,19.7,26.2,00.6,00.4,0675.0,31.2
2021-05-07T19:44:00Z,00000200,01000000,0000.54,0000.56,0000.29,0000.46,0000.03,-000.01,0000.63,0000.35,0000.64,19.7,26.2,00.5,00.4,0675.0,31.2
2021-05-07T19:45:00Z,00000200,01000000,0000.72,0000.67,0000.22,-000.11,0000.63,0000.17,0000.95,0001.29,0000.58,19.7,26.2,00.7,00.5,0675.0,31.2
2021-05-07T19:46:00Z,00000200,01000000,0001.16,0000.71,0000.55,-000.14,0000.38,0000.14,0000.65,0000.80,0000.55,19.7,26.2,00.9,00.6,0675.0,31.2
2021-05-07T19:47:00Z,00000200,01000000,0001.45,0000.88,0000.44,0000.68,0000.08,0000.24,0000.57,0000.47,0000.47,19.7,26.2,01.0,00.6,0675.0,31.2
2021-05-07T19:48:00Z,00000200,01000000,0001.25,0000.75,0000.29,-000.31,0000.31,0000.00,0000.40,-000.16,0000.39,19.7,26.2,00.9,00.6,0675.0,31.2
2021-05-07T19:49:00Z,00000200,01000000,0001.22,0000.89,0000.27,0000.15,0000.28,0000.36,0001.02,0001.03,0000.32,19.7,26.2,01.1,00.7,0675.0,31.2
2021-05-07T19:50:00Z,00000200,01000000,0001.77,0000.77,0000.42,0000.01,0000.33,0000.29,0000.27,0000.42,0000.41,19.6,26.2,01.0,00.7,0675.0,31.2
2021-05-07T19:51:00Z,00000200,01000000,0001.50,0000.61,0000.11,-000.18,0000.27,-000.04,0000.44,0000.11,0000.30,19.7,26.2,01.0,00.7,0675.0,31.2
2021-05-07T19:52:00Z,00000200,01000000,0001.48,0000.80,0000.56,0000.01,0000.38,-000.04,0000.68,0000.76,0000.12,19.6,26.2,00.9,00.6,0675.0,31.2
2021-05-07T19:53:00Z,00000200,01000000,0001.55,0000.92,0000.72,-000.07,0000.07,0000.24,0000.90,0000.88,0001.28,19.7,26.1,01.1,00.7,0675.0,31.2
2021-05-07T19:54:00Z,00000200,01000000,0001.24,0000.73,0000.34,0000.07,0000.13,0000.25,0000.68,0000.68,0000.19,19.7,26.1,01.3,00.9,0675.0,31.2
2021-05-07T19:55:00Z,00000200,01000000,0001.57,0000.70,0000.50,-000.58,0000.35,0000.11,0000.70,0000.40,-000.10,19.7,26.1,01.2,00.8,0675.0,31.2
2021-05-07T19:56:00Z,00000200,01000000,0001.36,0001.03,0000.22,0000.40,0000.17,0000.02,0000.86,0000.76,0000.74,19.7,26.2,01.4,00.9,0675.0,31.2
2021-05-07T19:57:00Z,00000200,41000000,,,,,,,-000.17,-000.36,-000.06,19.7,26.2,01.5,01.0,0675.0,31.2
2021-05-07T19:58:00Z,00000200,61000000,,,,,,,-000.05,0000.16,-000.02,19.3,26.3,01.2,00.8,0674.0,31.2
2021-05-07T19:59:00Z,00000200,21000000,,,,,,,0000.39,0000.73,0000.22,19.3,26.4,01.2,00.8,0674.0,31.2
